Regional Weather Roundup
Issued by NWS

Home | Current Version | Previous Version | Text Only | Print | Product List | Glossary On
Versions: 1 2 3 4 5 6 7 8 9 10 11 12 13 14 15 16 17 18 19 20 21 22 23 24 25 26 27 28 29 30 31 32 33 34 35 36 37 38 39 40 41 42 43 44 45 46 47 48 49 50
000
ASUS42 KTBW 271615
RWRFL
FLORIDA REGIONAL WEATHER ROUNDUP
NATIONAL WEATHER SERVICE TAMPA BAY RUSKIN FL
1200 PM EDT FRI MAR 27 2015

NOTE: "FAIR" INDICATES FEW OR NO CLOUDS BELOW 12,000 FEET WITH NO
SIGNIFICANT WEATHER AND/OR OBSTRUCTIONS TO VISIBILITY.


FLZ001>010-012>015-112-114-115-271700-
PANHANDLE FLORIDA

CITY           SKY/WX    TMP DP  RH WIND       PRES   REMARKS
PENSACOLA      PTSUNNY   54  44  69 NW20G29   29.99R
PENSACOLA NAS  PTSUNNY   55  45  68 N14G29    29.98R
MILTON NAS     PTSUNNY   52  44  74 NW18G28   29.98
CRESTVIEW      CLOUDY    53  45  74 NW14G20   29.98R
DUKE FIELD     CLOUDY    53  46  76 NW17      29.94R
VALPARAISO     CLOUDY    55  46  71 NW10      29.95R
MARY ESTHER    PTSUNNY   55  43  62 N18       29.95
TRI COUNTY     CLOUDY    54  49  83 VRB5      29.95R
PANAMA CITY    CLOUDY    59  52  77 NW17      29.91R
TYNDALL AFB    CLOUDY    62  56  79 NW14      29.89R
APALACHICOLA   CLOUDY    73  61  65 NW18      29.84S

STATION/POSITION SKY/WX   TEMP    WIND        PRES    WAVE   SWELL
                          AIR SEA DIR/SP/G            HT/PER HT/PER
                          (F)     (DEG/KT/KT) (MB)    (FT/S) (FT/S)
30.1N   87.6W              55 67  330/ 19/ 23 1014.7R   4/ 5
29.2N   88.2W              58 72  340/ 21/ 27 1016.6R   6/ 6   2/ 8
28.8N   86.0W              70 76  320/ 17/ 21 1011.5    5/ 6
PANAMA CITY BEAC           59 69  300/ 12/ 16 1012.1R
CAPE SAN BLAS    NOT AVBL
TOWER C                    66     290/ 17/ 19 1011.0R
28.5N   84.5W              72 71  290/ 10/ 12 1011.6R   4/ 7   2/ 7

$$
FLZ011-016>038-118-127-128-134-139-239-271700-
NORTH FLORIDA

CITY           SKY/WX    TMP DP  RH WIND       PRES   REMARKS
MARIANNA       CLOUDY    57  52  83 NW13      29.91R
TALLAHASSEE    CLOUDY    67  61  81 NW9       29.83S
PERRY          CLOUDY    72  65  78 W15       29.83F
CROSS CITY       N/A     72  63  73 W12G18    29.84S
LAKE CITY      CLOUDY    70  64  83 W10G20    29.83S
GAINESVILLE    PTSUNNY   69  66  90 SW10      29.83S
MAYPORT NAS    CLOUDY    72  65  78 SW14      29.81S
JACKSONVILLE   CLOUDY    74  65  73 SW14      29.79F
JAX NAS        CLOUDY    76  64  66 SW14G23   29.81F
JAX CRAIG      CLOUDY    73  63  70 SW12      29.80F
JAX CECIL      PTSUNNY   73  66  78 SW13      29.81F
FERNANDINA BEA PTSUNNY   79  68  69 SW12G18   29.79F
ST AUGUSTINE   CLOUDY    73  66  78 SW10      29.83F

STATION/POSITION SKY/WX   TEMP    WIND        PRES    WAVE   SWELL
                          AIR SEA DIR/SP/G            HT/PER HT/PER
                          (F)     (DEG/KT/KT) (MB)    (FT/S) (FT/S)
SHELL POINT                68     290/  9/ 13   N/A
KEATON BEACH               68     260/ 11/ 12 1010.6R
CEDAR KEY                  70     270/  8/ 11 1011.6F
FERNANDINA                 69 66  230/ 10/ 14 1008.5F
30.7N   81.3W                 63                N/A     2/ 8
MAYPORT                    69 67  230/ 12/ 14 1009.5S
31.4N   80.9W              63 60  200/ 12/ 14 1008.2F   2/ 8   2/ 8
ST AUGUSTINE               72 62  260/ 12/ 15 1010.6F

$$
FLZ040-043>046-052-053-057-058-063-144-271700-
INTERIOR CENTRAL FLORIDA

CITY           SKY/WX    TMP DP  RH WIND       PRES   REMARKS
OCALA          PTSUNNY   75  63  64 W12G22    29.86R
THE VILLAGES     N/A     75  70  83 SW12      29.77R
LEESBURG       PTSUNNY   74  66  76 W9        29.88S
SANFORD        PTSUNNY   78  64  61 W15       29.86F
ORLANDO EXEC   PTSUNNY   77  65  66 W15G25    29.87S
ORLANDO INTL   PTSUNNY   78  65  63 SW15      29.88S
KISSIMMEE      MOSUNNY   77  66  69 W13G20    29.89S
WINTER HAVEN   PTSUNNY   78  67  68 SW13      29.91S
LAKELAND       PTSUNNY   75  68  78 SW10G20   29.90S
BARTOW         PTSUNNY   77  66  69 SW17G29   29.91F
OKEECHOBEE     CLOUDY    79  72  78 SW12      29.92S

$$
FLZ041-047-054-059-064-141-147-271700-
EAST CENTRAL FLORIDA

CITY           SKY/WX    TMP DP  RH WIND       PRES   REMARKS
ORMOND BEACH   MOSUNNY   75  64  69 W12G21    29.85S
DAYTONA BEACH  PTSUNNY   77  65  66 W13       29.86R
DELAND           N/A     77  66  69 W9G20     29.87S
NEW SMYRNA BEA MOSUNNY   77  64  65 W17G23    29.86F
JFK SPACE CTR  CLOUDY    78  64  63 W13       29.86S
TITUSVILLE     PTSUNNY   75  66  73 W18       29.88R
CAPE CANAVERAL CLOUDY    78  66  66 W17G25    29.86S
PATRICK AFB    CLOUDY    80  68  67 SW18      29.87
MELBOURNE      CLOUDY    80  68  66 SW16G23   29.88S
VERO BEACH     CLOUDY    79  71  76 SW12G22   29.90S
FT PIERCE      CLOUDY    79  71  76 SW12G23   29.90F
STUART         PTSUNNY   77  68  73 SW129     29.92S FOG

STATION/POSITION SKY/WX   TEMP    WIND        PRES    WAVE   SWELL
                          AIR SEA DIR/SP/G            HT/PER HT/PER
                          (F)     (DEG/KT/KT) (MB)    (FT/S) (FT/S)
28.5N   80.2W              70 68  200/ 12/ 14 1011.7R
28.9N   78.5W              78 76  210/ 19/ 23 1011.4F
TRIDENT PIER               77 74  220/ 14/ 19 1011.8R
28.4N   80.5W                 72                N/A     2/ 8
27.5N   80.2W                 77                N/A     3/ 8

$$
FLZ050-056-061-142-242-148-248-149-249-151-251-155-255-
160-260-271700-
WEST CENTRAL FLORIDA

CITY           SKY/WX    TMP DP  RH WIND       PRES   REMARKS
CRYSTAL RIVER  FAIR      75  64  69 W13       29.86F
INVERNESS      CLOUDY   N/A N/A N/A W9        29.87F
BROOKSVILLE    CLOUDY    77  65  66 W9        29.89R
ZEPHYRHILLS    PTSUNNY   77  64  65 SW15      29.90R
CLEARWATER     CLOUDY    78  68  71 W12       29.88F
TAMPA INTL     CLOUDY    78  66  66 SW10      29.89S
TAMPA EXEC     CLOUDY    79  64  61 W6        29.91R
PLANT CITY     PTSUNNY   79  70  73 SW12G18   29.92R
MACDILL AFB    CLOUDY    79  70  75 SW9       29.89F
PETER O KNIGHT CLOUDY    79  68  69 W9        29.90S
ST PETERSBURG  PTSUNNY   77  67  71 W13       29.87F
SARASOTA       PTSUNNY   76  70  82 W12       29.90S
VENICE         PTSUNNY   77  72  83 W12       29.93S

STATION/POSITION SKY/WX   TEMP    WIND        PRES    WAVE   SWELL
                          AIR SEA DIR/SP/G            HT/PER HT/PER
                          (F)     (DEG/KT/KT) (MB)    (FT/S) (FT/S)
CEDAR KEY                  70     270/  8/ 11 1011.6F
28.5N   84.5W              72 71  290/ 10/ 12 1011.6R   4/ 7   2/ 7
27.3N   84.2W                 74                N/A     4/ 5
CLEARWATER BEACH           74 75  230/ 13/ 15 1012.2R
MIDDLE TAMPA BAY           75     240/ 14/ 16 1012.6R
VENICE                     76 76  260/ 15/ 17 1012.8R

$$
FLZ066-069-070-075>078-162-262-165-265-271700-
SOUTHWEST FLORIDA AND KEYS

CITY           SKY/WX    TMP DP  RH WIND       PRES   REMARKS
PUNTA GORDA    PTSUNNY   80  69  69 SW21      29.93F
FT MYERS       CLOUDY    81  70  69 SW14G23   29.91F
SOUTHWEST INTL CLOUDY    80  70  71 SW20      29.92S
NAPLES         CLOUDY    80  74  81 SW14      29.92S
MARCO ISLAND   CLOUDY    81  72  74 SW14G20   29.92F
IMMOKALEE      SUNNY    N/A N/A N/A SW10      29.93F
MARATHON       MOSUNNY   86  76  71 S9        29.97S HX  96
KEY WEST NAS   MOSUNNY   84  74  71 S13       29.97S
KEY WEST INTL  SUNNY     81  75  82 SW10      29.98S

STATION/POSITION SKY/WX   TEMP    WIND        PRES    WAVE   SWELL
                          AIR SEA DIR/SP/G            HT/PER HT/PER
                          (F)     (DEG/KT/KT) (MB)    (FT/S) (FT/S)
VENICE                     76 76  260/ 15/ 17 1012.8R
NAPLES                     78 79  190/  3/  6 1013.3R
26.0N   85.6W              69 75  270/  4/  4 1014.4R   4/ 6   3/ 6
DRY TORTUGAS               78     240/  6/  7 1014.6F
NW FL BAY                  81     260/ 10/ 12 1015.3
SAND KEY                   79     210/  9/ 10 1015.0F
SOMBRERO KEY               79     220/ 13/ 14 1015.4F
LONG KEY                   80 82  260/ 10/ 11 1015.6F
MOLASSES REEF              79 78  230/ 16/ 17 1014.5F

$$
FLZ067-068-071>074-168-172>174-271700-
SOUTHEAST FLORIDA

CITY           SKY/WX    TMP DP  RH WIND       PRES   REMARKS
W PALM BEACH   CLOUDY    84  72  67 SW15G25   29.90S
FT LAUDER-EXEC MOSUNNY   88  70  55 SW13      29.92F
FT LAUDERDALE  PTSUNNY   85  70  60 SW14G26   29.92F
POMPANO BEACH  PTSUNNY   88  68  51 S16G24    29.92F
PEMBROKE PINES MOSUNNY   86  71  60 SW15G23   29.94F
OPA LOCKA      LGT RAIN  80  72  76 SW13      29.93F
MIAMI          PTSUNNY   87  70  56 SW14      29.93F
WEST KENDALL   PTSUNNY   88  69  53 W17       29.93F
HOMESTEAD      MOSUNNY   84  73  70 S13       29.94F

STATION/POSITION SKY/WX   TEMP    WIND        PRES    WAVE   SWELL
                          AIR SEA DIR/SP/G            HT/PER HT/PER
                          (F)     (DEG/KT/KT) (MB)    (FT/S) (FT/S)
PORT EVERGLADES            85     200/  5/ 13 1013.3F



USA.gov is the U.S. government's official web portal to all federal, state and local government web resources and services.